loading
|

THOR ABLESTAR DEB, 150

Orbit data source: Space-Track

THOR ABLESTAR DEB, 150 is space debris in LEO originally from a launch on Thu, 29 Jun 1961 UTC launched from the Air Force Eastern Test Range (AFETR). Debris objects in space refer to the collection of defunct objects orbiting the Earth. Examples of debris include non-operational satellites, rocket bodies, and fragments generated from explosions, collisions, or faulty payload assembly.

Loading next visibility...
Loading greatness...
THOR ABLESTAR DEB details
Identifier
150, 1961-015AL
Orbit
LEO
Last TLE update12 hours ago
Origin
Flag of USUSAF SSD (US)
ManufacturerUnknown
Mission statusUnknown
MissionUnknown
Bus & MotorUnknown
MassUnknown
Launch date (UTC)
1961-06-29 (63 years ago)
Launch vehicleUnknown
Launch site
Air Force Eastern Test Range (AFETR)
Object type
Payload
Rocket body
Debris
Radar Cross SectionMedium (>0.1 m² and <1 m²)

Expand to show TLE details & history

TLE from 12 hours ago
0 THOR ABLESTAR DEB
1 00150U 61015AL  24258.78924749  .00002092  00000-0  19557-2 0  9992
2 00150  66.2493  42.0859 0067724 267.0662  92.2656 13.82829066 19916
Epoch: 2024-09-14T18:56Z
Definitive object data (Epoch: 2024-09-14T18:56:30.983Z)
Latitude-0.00004°
Longitude123.71486°
Altitude958.194 km
Speed7.372 km/s
True Right ascension02h 48m 20s
True Declination0° 00' 00"
Sunlit
Object was in full shadow at TLE epoch
Predictive object data (real-time)
Latitude27.10801°
Longitude135.40247°
Altitude983.122 km
Speed7.349 km/s
Apparent Right ascension06h 42m 29s
Apparent Declination-7° 32' 47"
Sunlit
Object is in daylight
Predictive observer data (real-time)
Local Sidereal Time23:52:40
Azimuth87.844° E
Elevation-14.373°
Doppler factor1
Orbital elements
Apogee1,001.977 km
Perigee902.687 km
Semi-major axis7,330.469 km
Eccentricity0.0067724
Inclination66.2493°
RAAN42.0859°
Arg. of periapsis267.0662°
True anomaly93.04077°
Mean anomaly92.2656°
Eccentric anomaly92.65321°
Mean motion3.45816 °/min
BSTAR0.0019557
Period104.1 mins
No data available

THOR ABLESTAR DEB Visibility forecast

Observer location: 39.9160978°, -105.1181434

THOR ABLESTAR DEB is not visible in the next 10 days
Span
Click to sort rows by Start time (UTC) header in descending order
Start Az.
Max El. time (UTC)
Max El. Az.
Max El.
End time (UTC)
End Az.